Weather in Studencheskiy

Russia / Sverdlovsk Oblast     56°41′45″N   61°15′52″E
temp.,
°C
wind,
m/s
gust,
m/s
humid.,
%
clouds,
%
prec.,
mm/h
press.,
hPa
HPBL,
m
21 january, fri
fri2123:00−12sw27958 0.0 1021100
02:00−14sw28957 0.0 1022127
05:00−15sw279641 0.0 1023102
08:00−15sw26969 0.0 102277
11:00−12sw399353 0.0 1023234
14:00−7wsw388863 0.0 1023369
17:00−11sw229692 0.0 102430
20:00−13wsw259516 0.0 102678
22 january, sat
sat2223:00−16wsw239790 0.0 102735
02:00−16wsw2297100 0.0 102730
05:00−18wsw119863 0.0 102810
08:00−19sw219925 0.0 102911
11:00−12sw22905 0.0 102957
14:00−7ssw24845 0.0 1029171
17:00−14sse22956 0.0 103118
20:00−19ssw229490 0.0 103326
23 january, sun
sun2323:00−18ssw119276 0.0 103322
02:00−21ssw219459 0.0 103415
05:00−22sw22956 0.0 103515
08:00−22sw119635 0.0 10369
11:00−15ssw128487 0.0 103642
14:00−10s2376100 0.0 1036112
17:00−13sse2294100 0.0 103823
20:00−17ssw2294100 0.0 103926
24 january, mon
mon2423:00−17ssw2294100 0.0 103929
02:00−15ssw2293100 0.0 103940
05:00−17ssw2492100 0.0 104164
08:00−15ssw2790100 0.0 1040125
11:00−12ssw2585100 0.0 1040109
14:00−8ssw2482100 0.0 1039137
17:00−9s2292100 0.0 103845
20:00−12sw1196100 0.0 103721
25 january, tue
tue2523:00−10w2794100 0.0 1036111
02:00−8w3995100 0.4 1035327
05:00−9w3994100 0.7 1034289
08:00−11w3995100 0.0 1033230
11:00−10w31191100 0.0 1033372
14:00−7w4888100 0.0 1031434
17:00−8w3990100 0.0 1030390
20:00−8w41189100 0.0 1030393